Location: Unspecified
(0.0000°N, 0.0000°E)
Time: 10:19:05
(UTC+00:00)

Courier 1B Rocket - Pass Details

Date: 17 December 2018
Orbit: 920 x 1202 km, 28.3° (Epoch: 17 January)

Event Time Altitude Azimuth Distance (km) Brightness Sun altitude
Rises 19:25:37 0° 256° (WSW) 4,093 9.7 -20.4°
Reaches altitude 10° 19:30:12 10° 232° (SW) 3,113 8.7 -21.5°
Maximum altitude 19:34:02 14° 202° (SSW) 2,772 7.9 -22.3°
Drops below altitude 10° 19:37:49 10° 172° (S) 3,051 7.8 -23.2°
Sets 19:42:15 0° 148° (SSE) 3,957 8.1 -24.2°
